{"data":{"norad_id":50574,"epoch":"2026-05-25T04:23:36.024576Z","epoch_age_seconds":59967,"freshness":"FRESH","line1":"1 50574U 21135A   26145.18305584 -.00000301  00000+0  00000+0 0  9998","line2":"2 50574   0.0755  74.4363 0004273  18.2327 353.2180  1.00268705 16206","mean_motion":1.00268705,"eccentricity":0.0004273,"inclination_deg":0.0755,"raan_deg":74.4363,"arg_perigee_deg":18.2327,"mean_anomaly_deg":353.218,"bstar":0,"rev_number":1620,"period_min":1436.1410172795,"perigee_km":35769.441060177,"apogee_km":35805.475778023,"semimajor_km":42165.5954191,"source":"CELESTRAK","updated_at":"2026-05-25T13:38:14.106511Z"}}